Stations météo

réclame
Mon MeteoGroup
Svanberga, Suède (2490): Température de l'air & dewpoint: 15.10.2018 16:00:00 - 21.10.2018 16:00:00 (CEST)Svanberga, Suède (2490): Vitesse du vent & gusts: 15.10.2018 16:00:00 - 21.10.2018 16:00:00 (CEST)Svanberga, Suède (2490): Direction du vent: 15.10.2018 16:00:00 - 21.10.2018 16:00:00 (CEST)Svanberga, Suède (2490): reduced air pressure: 15.10.2018 16:00:00 - 21.10.2018 16:00:00 (CEST)Svanberga, Suède (2490): visibility: 15.10.2018 16:00:00 - 21.10.2018 16:00:00 (CEST)Svanberga, Suède (2490): Quantités de précipitations: 15.10.2018 16:00:00 - 21.10.2018 16:00:00 (CEST)
Date & Time tt [°C] td [°C] ff [km/h] ff [knt] fx [km/h] fx [knt] dd ppp [hPa] vv [km] rr [mm]
21.10.2018 16:00:00 10,8 10,5 9 5 26 14 WSW 1014,4 15 0,0
21.10.2018 15:00:00 10,6 10,0 9 5 25 14 WSW 1015,0 25 0,0
21.10.2018 14:00:00 10,2 9,7 5 3 22 12 SW 1015,7 29 0,0
21.10.2018 13:00:00 9,8 8,9 5 3 24 13 SW 1016,6 44 0,0
21.10.2018 12:00:00 9,4 8,5 8 4 31 17 SW 1017,4 49 0,0
21.10.2018 11:00:00 8,7 7,3 8 5 26 14 SW 1017,8 43 0,0
21.10.2018 10:00:00 6,8 6,1 5 3 14 7 SSW 1018,7 50 0,0
21.10.2018 09:00:00 5,3 - 6 4 14 8 SSW 1018,8 26 0,0
21.10.2018 08:00:00 4,3 - 5 3 13 7 S 1019,4 14 0,0
21.10.2018 07:00:00 4,4 - 3 2 18 10 SSW 1020,1 9 0,0
21.10.2018 06:00:00 4,8 - 5 3 13 7 SSW 1020,5 6 0,0
21.10.2018 05:00:00 5,1 - 4 2 14 8 SSW 1021,1 9 0,0
21.10.2018 04:00:00 5,0 - 3 2 12 7 SSW 1021,3 9 0,0
21.10.2018 03:00:00 4,9 - 7 4 15 8 SW 1022,0 10 0,0
21.10.2018 02:00:00 5,1 - 3 2 8 5 WSW 1022,2 0,9 0,0
21.10.2018 01:00:00 3,8 - 0 0 12 6 N 1022,5 0,3 0,0
21.10.2018 00:00:00 2,8 - 3 1 8 4 WSW 1022,4 0,3 0,0
20.10.2018 23:00:00 -1,4 - 2 1 4 2 E 1022,5 7 0,0
20.10.2018 22:00:00 0,1 - 0 0 5 3 N 1022,7 1,0 0,0
20.10.2018 21:00:00 -0,2 -0,2 2 1 6 3 S 1022,7 1,5 0,0
20.10.2018 20:00:00 0,3 0,2 0 0 4 2 N 1022,4 7 0,0
20.10.2018 19:00:00 1,7 1,6 0 0 7 4 N 1022,2 48 0,0
20.10.2018 18:00:00 2,3 1,7 0 0 3 1 N 1022,1 35 0,0
20.10.2018 17:00:00 6,3 5,1 0 0 5 3 N 1021,6 50 0,0
20.10.2018 16:00:00 10,4 4,7 2 1 5 3 W 1021,4 39 0,0
20.10.2018 15:00:00 11,7 4,2 0 0 6 3 N 1021,6 47 0,0
20.10.2018 14:00:00 10,7 5,2 4 2 7 4 SW 1021,3 50 0,0
20.10.2018 13:00:00 9,7 5,1 0 0 6 4 N 1021,1 50 0,0
20.10.2018 12:00:00 9,9 4,3 3 2 13 7 SW 1020,9 50 0,0
20.10.2018 11:00:00 8,8 5,4 5 3 14 8 SW 1020,8 50 0,0
20.10.2018 10:00:00 6,2 6,1 7 4 15 8 SW 1020,3 36 0,2
20.10.2018 09:00:00 3,8 - 0 0 4 2 N 1020,2 44 0,0
20.10.2018 08:00:00 2,7 2,7 0 0 7 4 N 1020,1 34 0,0
20.10.2018 07:00:00 2,2 - 0 0 5 3 N 1019,9 31 0,0
20.10.2018 06:00:00 1,9 - 0 0 2 1 N 1019,6 40 0,0
20.10.2018 05:00:00 1,3 - 0 0 3 2 N 1019,8 36 0,0
20.10.2018 04:00:00 0,4 - 0 0 2 1 N 1019,9 21 0,0
20.10.2018 03:00:00 -0,3 - 0 0 2 1 N 1020,3 37 0,0
20.10.2018 02:00:00 -1,1 - 0 0 3 2 N 1020,7 16 0,0
20.10.2018 01:00:00 -1,7 - 0 0 3 1 N 1021,0 28 0,0
20.10.2018 00:00:00 -1,0 -1,0 0 0 2 1 N 1020,8 37 0,0
19.10.2018 23:00:00 -1,7 -1,7 0 0 3 1 N 1020,9 28 0,0
19.10.2018 22:00:00 0,3 0,3 0 0 6 3 N 1021,3 50 0,0
19.10.2018 21:00:00 0,0 0,0 0 0 5 3 N 1021,5 50 0,0
19.10.2018 20:00:00 0,5 0,1 0 0 3 2 N 1021,4 50 0,0
19.10.2018 19:00:00 1,0 0,3 0 0 3 2 N 1021,3 50 0,0
19.10.2018 18:00:00 3,0 1,0 0 0 5 3 N 1021,4 50 0,0
19.10.2018 17:00:00 6,4 2,7 3 1 13 7 SW 1021,3 50 0,0
19.10.2018 16:00:00 11,0 1,5 7 4 14 8 WNW 1021,6 50 0,0
19.10.2018 15:00:00 11,7 2,4 3 2 14 8 W 1021,8 47 0,0
19.10.2018 14:00:00 11,1 3,1 5 3 14 8 W 1022,2 50 0,0
19.10.2018 13:00:00 10,3 3,3 6 3 14 8 W 1022,3 49 0,0
19.10.2018 12:00:00 8,7 5,1 5 3 11 6 W 1022,4 49 0,0
19.10.2018 11:00:00 5,8 4,0 4 2 9 5 WSW 1022,4 48 0,0
19.10.2018 10:00:00 3,6 3,6 4 2 9 5 W 1022,4 42 0,0
19.10.2018 09:00:00 0,6 0,6 3 1 8 4 W 1022,4 33 0,0
19.10.2018 08:00:00 -2,2 -2,2 3 2 6 4 SW 1022,1 21 0,0
19.10.2018 07:00:00 -2,0 -2,0 4 2 8 4 WSW 1021,8 20 0,0
19.10.2018 06:00:00 -1,2 -1,2 4 2 8 4 W 1021,8 16 0,0
19.10.2018 05:00:00 -1,7 -1,7 4 2 8 4 WSW 1021,5 16 0,0
19.10.2018 04:00:00 -0,8 -0,8 5 3 8 4 WSW 1021,4 10 0,0
19.10.2018 03:00:00 -0,9 -0,9 4 2 7 4 WSW 1021,2 14 0,0
19.10.2018 02:00:00 0,0 0,0 2 1 5 3 SW 1021,3 2,4 0,0
19.10.2018 01:00:00 -0,9 -0,9 0 0 4 2 N 1021,3 1,1 0,0
19.10.2018 00:00:00 -0,3 -0,3 0 0 4 2 N 1021,2 3,8 0,0
18.10.2018 23:00:00 0,4 0,4 2 1 4 2 SW 1020,7 7 0,0
18.10.2018 22:00:00 0,5 0,5 0 0 4 2 N 1020,1 1,0 0,0
18.10.2018 21:00:00 2,3 2,2 0 0 5 3 N 1019,8 23 0,0
18.10.2018 20:00:00 1,5 1,4 0 0 4 2 N 1019,2 1,2 0,0
18.10.2018 19:00:00 3,6 3,3 0 0 5 3 N 1018,6 48 0,0
18.10.2018 18:00:00 6,0 3,8 0 0 11 6 N 1018,3 50 0,0
18.10.2018 17:00:00 10,0 6,3 4 2 16 9 NNE 1017,4 50 0,0
18.10.2018 16:00:00 11,5 6,8 7 4 29 16 N 1016,5 47 0,0
18.10.2018 15:00:00 14,3 7,4 8 5 20 11 WNW 1015,4 48 0,0
18.10.2018 14:00:00 12,8 6,2 12 6 23 12 WNW 1014,8 50 0,0
18.10.2018 13:00:00 13,4 8,5 9 5 22 12 W 1014,6 49 0,0
18.10.2018 12:00:00 12,3 9,5 6 3 21 11 W 1014,5 37 0,0
18.10.2018 11:00:00 12,7 11,1 9 5 21 11 W 1014,4 21 0,0
18.10.2018 10:00:00 11,8 11,2 8 4 16 9 WSW 1014,1 11 0,0
18.10.2018 09:00:00 11,8 11,3 5 3 14 7 WSW 1014,3 6 0,1
18.10.2018 08:00:00 12,0 11,4 6 3 16 9 WSW 1013,9 7 0,0
18.10.2018 07:00:00 12,4 11,5 6 3 17 9 SW 1013,8 9 0,0
18.10.2018 06:00:00 12,3 11,5 5 3 12 7 SW 1013,8 8 0,0
18.10.2018 05:00:00 12,4 11,5 4 2 14 7 SW 1014,0 9 0,0
18.10.2018 04:00:00 12,7 11,6 4 2 13 7 SW 1014,3 11 0,0
18.10.2018 03:00:00 12,7 11,4 4 2 14 8 SSW 1014,8 15 0,0
18.10.2018 02:00:00 12,7 11,3 5 3 14 7 SW 1015,1 19 0,0
18.10.2018 01:00:00 12,8 11,0 3 2 14 8 SSW 1015,4 23 0,0
18.10.2018 00:00:00 12,3 11,0 3 2 8 5 SW 1015,6 16 0,0
17.10.2018 23:00:00 12,4 11,1 3 2 16 9 SSW 1015,8 14 0,0
17.10.2018 22:00:00 12,2 11,3 6 4 14 8 S 1015,8 9 0,0
17.10.2018 21:00:00 11,6 11,3 5 3 11 6 S 1016,2 6 0,0
17.10.2018 20:00:00 11,6 11,1 4 2 12 6 S 1016,5 6 0,0
17.10.2018 19:00:00 11,6 11,3 4 2 11 6 S 1016,6 8 0,0
17.10.2018 18:00:00 9,8 9,3 0 0 6 3 N 1016,8 5 0,0
17.10.2018 17:00:00 13,0 11,6 3 2 12 6 SW 1016,6 12 0,0
17.10.2018 16:00:00 13,6 11,8 5 3 19 10 SW 1016,8 12 0,0
17.10.2018 15:00:00 13,3 12,0 7 4 20 11 WSW 1016,8 9 0,0
17.10.2018 14:00:00 12,7 11,8 8 4 25 13 WSW 1017,1 8 0,0
17.10.2018 13:00:00 12,8 11,9 12 7 29 16 WSW 1017,0 6 0,0
17.10.2018 12:00:00 12,7 11,9 4 2 15 8 WSW 1016,9 6 0,0
17.10.2018 11:00:00 12,0 11,4 6 3 13 7 SW 1017,2 5 0,0
17.10.2018 10:00:00 11,0 10,7 3 2 11 6 WSW 1017,1 4,6 0,0
17.10.2018 09:00:00 10,2 10,2 2 1 8 4 WSW 1017,0 4,5 0,0
17.10.2018 08:00:00 9,2 9,2 2 1 8 4 S 1017,0 3,1 0,0
17.10.2018 07:00:00 9,2 9,2 3 2 10 5 SSE 1016,9 3,9 0,0
17.10.2018 06:00:00 9,6 9,6 3 1 8 5 SE 1017,0 5 0,0
17.10.2018 05:00:00 9,6 9,6 4 2 11 6 SE 1017,4 8 0,0
17.10.2018 04:00:00 9,3 9,3 5 3 13 7 SSE 1017,8 11 0,0
17.10.2018 03:00:00 9,1 9,1 6 3 11 6 SE 1018,1 9 0,4
17.10.2018 02:00:00 9,0 9,0 3 2 10 5 SE 1018,8 12 0,0
17.10.2018 01:00:00 8,9 8,9 5 3 11 6 ESE 1018,8 12 0,0
17.10.2018 00:00:00 8,7 8,7 0 0 5 3 N 1019,5 0,6 0,0
16.10.2018 23:00:00 8,6 8,5 2 1 9 5 ENE 1019,7 1,2 0,0
16.10.2018 22:00:00 8,6 8,2 3 2 9 5 E 1020,1 19 0,0
16.10.2018 21:00:00 8,5 8,1 4 2 9 5 E 1020,3 26 0,0
16.10.2018 20:00:00 8,4 7,8 5 3 10 6 E 1020,2 25 0,0
16.10.2018 19:00:00 8,5 7,7 5 3 8 4 ENE 1020,4 50 0,0
16.10.2018 18:00:00 8,6 7,7 4 2 8 4 NE 1020,3 50 0,0
16.10.2018 17:00:00 8,9 7,7 6 3 11 6 ENE 1020,0 50 0,0
16.10.2018 16:00:00 9,1 7,7 7 4 13 7 NE 1020,0 50 0,0
16.10.2018 15:00:00 9,3 7,5 6 3 14 8 NNE 1020,0 50 0,0
16.10.2018 14:00:00 9,5 7,9 6 3 15 8 NNE 1019,9 50 0,0
16.10.2018 13:00:00 9,7 8,1 5 3 14 7 NNE 1019,6 50 0,0
16.10.2018 12:00:00 9,8 8,6 4 2 14 8 NNE 1019,4 46 0,0
16.10.2018 11:00:00 10,1 9,0 5 3 11 6 NNE 1018,7 50 0,0
16.10.2018 10:00:00 10,0 9,2 3 2 10 5 NNE 1017,8 18 0,1
16.10.2018 09:00:00 9,5 9,5 4 2 10 5 NNW 1017,4 10 0,0
16.10.2018 08:00:00 9,0 9,0 3 2 9 5 NW 1016,6 7 0,0
16.10.2018 07:00:00 8,0 8,0 3 2 9 5 W 1016,0 4,7 0,0
16.10.2018 06:00:00 4,6 4,6 0 0 0 0 N 1015,3 1,2 0,0
16.10.2018 05:00:00 4,5 4,5 0 0 0 0 N 1014,5 0,5 0,0
16.10.2018 04:00:00 6,0 6,0 0 0 6 3 N 1013,9 1,9 0,0
16.10.2018 03:00:00 4,9 4,9 0 0 4 2 N 1013,9 0,5 0,0
16.10.2018 02:00:00 4,6 4,5 0 0 5 3 N 1013,9 0,4 0,0
16.10.2018 01:00:00 5,3 5,0 0 0 5 3 N 1013,2 1,2 0,0
16.10.2018 00:00:00 9,2 8,3 3 1 10 5 SE 1013,2 12 0,0
15.10.2018 23:00:00 9,8 8,4 4 2 12 6 S 1013,2 14 0,0
15.10.2018 22:00:00 9,9 8,3 4 2 13 7 S 1013,3 14 0,0
15.10.2018 21:00:00 9,8 8,1 4 2 15 8 SSE 1013,6 16 0,0
15.10.2018 20:00:00 11,6 8,1 4 2 17 9 S 1013,7 20 0,0
15.10.2018 19:00:00 12,9 8,2 5 3 17 9 S 1013,4 24 0,0
15.10.2018 18:00:00 14,5 8,7 6 4 17 9 S 1013,7 26 0,0
15.10.2018 17:00:00 15,9 9,3 4 2 14 8 SSE 1013,4 22 0,0
15.10.2018 16:00:00 18,0 9,4 5 3 18 10 S 1013,5 21 0,0

tt = Température de l'air
td = dewpoint
ff = Vitesse du vent
fx = gusts
dd = Direction du vent
ppp = reduced air pressure
vv = visibility
rr = Quantités de précipitations

stations d'obs. à proximité